Location: Scultetus-Sternwarte Görlitz
(51.1345°N, 14.9495°E)
Time: 21:35:42
(UTC+02:00)

ISS - Visible Passes

Search period start: 13 May 2021 00:00
Search period end: 23 May 2021 00:00
Orbit: 417 x 422 km, 51.6° (Epoch: 13 May)

Date Brightness Start Highest point End Pass type
(mag) Time Alt. Az. Time Alt. Az. Time Alt. Az.
13 May -1.7 00:32:07 19° E 00:32:07 19° E 00:33:13 10° E visible
13 May -3.7 02:05:02 28° W 02:06:41 80° N 02:10:05 10° E visible
13 May -3.8 03:40:09 10° W 03:43:30 60° SSW 03:46:50 10° ESE visible
13 May -1.0 23:45:44 10° E 23:45:44 10° E 23:45:45 10° E visible
14 May -3.8 01:18:38 57° W 01:19:13 81° N 01:22:36 10° E visible
14 May -3.9 02:52:42 10° W 02:56:05 75° SSW 02:59:27 10° ESE visible
14 May -2.6 04:29:48 10° W 04:32:34 23° SW 04:35:19 10° SSE visible
14 May -3.2 22:52:00 10° SW 22:55:07 36° SSE 22:58:15 10° E visible
15 May -3.9 00:28:23 10° W 00:31:46 88° NNW 00:35:09 10° E visible
15 May -3.9 02:05:15 10° W 02:08:38 89° S 02:12:02 10° ESE visible
15 May -3.1 03:42:11 10° W 03:45:15 32° SSW 03:48:19 10° SE visible
15 May -2.8 22:04:57 10° SSW 22:07:48 26° SSE 22:10:40 10° E visible
15 May -3.9 23:40:56 10° WSW 23:44:19 80° SSE 23:47:42 10° E visible
16 May -3.8 01:17:48 10° W 01:21:11 83° N 01:24:35 10° E visible
16 May -3.5 02:54:39 10° W 02:57:54 44° SSW 03:01:09 10° SE visible
16 May -3.9 22:53:33 10° WSW 22:56:54 64° SSE 23:00:14 10° E visible
17 May -3.7 00:30:20 10° W 00:33:43 80° N 00:37:06 10° E visible
17 May -3.8 02:07:11 10° W 02:10:30 59° SSW 02:13:50 10° ESE visible
17 May -2.2 03:45:02 12° WSW 03:46:50 16° SW 03:49:03 10° S visible
17 May -3.6 22:06:14 10° SW 22:09:29 49° SSE 22:12:46 10° E visible
17 May -3.7 23:42:52 10° W 23:46:14 81° N 23:49:37 10° E visible
18 May -3.9 01:19:43 10° W 01:22:54 72° SW 01:22:54 72° SW visible
18 May -3.8 22:55:23 10° W 22:58:46 88° NNW 23:02:09 10° E visible
19 May -3.9 00:32:15 10° W 00:35:39 88° SSW 00:36:29 48° ESE visible
19 May -1.2 02:09:11 10° W 02:09:25 11° W 02:09:25 11° W visible
19 May -3.8 22:07:57 10° WSW 22:11:18 80° SSE 22:14:41 10° E visible
19 May -3.8 23:44:47 10° W 23:48:10 83° N 23:50:18 21° E visible
20 May -2.2 01:21:39 10° W 01:23:14 24° W 01:23:14 24° W visible
20 May -3.7 22:57:19 10° W 23:00:42 80° N 23:04:04 10° E visible
21 May -3.6 00:34:10 10° W 00:37:09 55° SW 00:37:09 55° SW visible
21 May -3.7 22:09:50 10° W 22:13:13 81° N 22:16:36 10° E visible
21 May -3.9 23:46:42 10° W 23:50:04 75° SSW 23:51:06 41° ESE visible
22 May -1.2 01:23:48 10° W 01:24:02 11° W 01:24:02 11° W visible
22 May -3.8 22:59:13 10° W 23:02:37 88° S 23:05:05 17° ESE visible
